Terug naar catalogus

COSMOS 249 DEB

ActiefLEO
NORAD 3609·DEBRIS·🇷🇺 Russia

Gelanceerd Oct 20, 1968 vanaf Baikonur Cosmodrome

Loading…

Volgende Passages (komende 24 uur)

TLE

VersSource: Space-Track

Epoch: Sep 14, 2026, 11:19 UTC

1 03609U 68091AB  26257.47174452  .00000639  00000-0  14289-3 0  9993
2 03609  62.2714 263.0000 0725746 156.2823 207.3516 13.66575739717091

Volg COSMOS 249 DEB in realtime met AllMySat

Download on the App Store